Location: Dompnac
(44.5644°N, 4.1026°E)
Time: 10:39:52
(UTC+00:00)

NOSS 2-2 (E) - Visible Passes

Search period start: 17 January 2021 00:00
Search period end: 27 January 2021 00:00
Orbit: 465 x 1741 km, 63.3° (Epoch: 09 January)

Date Brightness Start Highest point End Pass type
(mag) Time Alt. Az. Time Alt. Az. Time Alt. Az.
19 Jan 6.3 19:07:41 10° N 19:08:18 12° N 19:08:18 12° N visible
20 Jan 6.1 18:22:54 10° N 18:24:13 11° NNE 18:24:13 11° NNE visible
20 Jan 6.8 20:11:32 10° NNW 20:11:36 10° NNW 20:11:36 10° NNW visible
21 Jan 6.2 19:26:16 10° NNW 19:27:32 16° N 19:27:32 16° N visible
22 Jan 5.9 18:41:06 10° N 18:43:32 17° NNE 18:43:32 17° NNE visible
22 Jan 6.8 20:30:30 10° NNW 20:30:55 12° NNW 20:30:55 12° NNW visible
23 Jan 6.0 17:56:05 10° N 17:58:27 13° NNE 17:59:34 12° NE visible
23 Jan 6.0 19:45:05 10° NNW 19:46:58 22° NNW 19:46:58 22° NNW visible
24 Jan 5.5 18:59:46 10° NNW 19:03:05 27° NNE 19:03:05 27° NNE visible
24 Jan 6.8 20:49:42 10° NW 20:50:29 15° NW 20:50:29 15° NW visible
25 Jan 5.6 18:14:32 10° NNW 18:18:31 21° NE 18:19:17 21° NE visible
25 Jan 5.8 20:04:07 10° NW 20:06:41 31° NNW 20:06:41 31° NNW visible
26 Jan 5.8 17:29:25 10° N 17:32:26 15° NNE 17:35:35 11° ENE visible
26 Jan 4.8 19:18:39 10° NNW 19:23:00 48° NNE 19:23:00 48° NNE visible
26 Jan 6.9 21:09:18 10° NW 21:10:25 16° WNW 21:10:25 16° WNW visible
